Location: *
(41.7492°S, 135.4150°W)
Time: 20:53:36
(UTC+00:00)

TIGRISAT - Pass Details

Date: 08 July 2022
Orbit: 604 x 686 km, 97.7° (Epoch: 14 August)

Event Time Altitude Azimuth Distance (km) Brightness Sun altitude
Rises 03:48:58 0° 329° (NNW) 2,985 ? -22.4°
Reaches altitude 10° 03:52:02 10° 306° (NW) 2,101 ? -23.0°
Maximum altitude 03:54:44 15° 270° (W) 1,783 ? -23.4°
Drops below altitude 10° 03:57:30 10° 234° (SW) 2,143 ? -24.0°
Sets 04:00:42 0° 211° (SSW) 3,080 ? -24.5°
